Terug naar catalogus

STARLINK-11168

ActiefCommunicatieVLEO
NORAD 60183·PAYLOAD·🇺🇸 United States

Gelanceerd Jul 3, 2024 vanaf Cape Canaveral Space Force Station

Loading…

Volgende Passages (komende 24 uur)

TLE

VersSource: CelesTrak SupGP

Epoch: Sep 14, 2026, 21:18 UTC

1 60183C 24124A   26257.88798611 -.00055984  00000+0 -46112-3 0  2577
2 60183  53.1562 308.4953 0001056  82.2313 181.1973 15.69739781    12

Volg STARLINK-11168 in realtime met AllMySat

Download on the App Store